Location: Bismarck
(46.7731°N, 100.8200°W)
Time: 10:10:47
(UTC-05:00)

ISS - Visible Passes

Search period start: 26 July 2014 00:00
Search period end: 05 August 2014 00:00
Orbit: 411 x 420 km, 51.6° (Epoch: 26 July)

Date Brightness Start Highest point End Pass type
(mag) Time Alt. Az. Time Alt. Az. Time Alt. Az.
26 Jul -2.7 03:32:56 45° WNW 03:33:36 56° NNW 03:36:56 10° ENE visible
26 Jul -1.6 05:07:37 10° WNW 05:10:44 34° N 05:13:51 10° ENE visible
27 Jul -2.2 02:45:45 43° NE 02:45:45 43° NE 02:48:09 10° ENE visible
27 Jul -1.7 04:18:41 10° WNW 04:21:48 35° N 04:24:57 10° ENE visible
28 Jul -0.7 01:58:35 16° ENE 01:58:35 16° ENE 01:59:21 10° ENE visible
28 Jul -1.9 03:31:26 25° WNW 03:32:54 38° N 03:36:05 10° ENE visible
28 Jul -1.8 05:06:54 10° WNW 05:10:06 39° N 05:13:17 10° E visible
29 Jul -2.2 02:44:16 44° N 02:44:16 44° N 02:47:16 10° ENE visible
29 Jul -1.6 04:18:03 10° WNW 04:21:11 35° N 04:24:19 10° ENE visible
30 Jul -1.1 01:57:07 22° NE 01:57:07 22° NE 01:58:29 10° ENE visible
30 Jul -1.6 03:29:59 16° WNW 03:32:16 34° N 03:35:23 10° ENE visible
30 Jul -2.6 05:06:03 10° WNW 05:09:23 57° NNE 05:12:43 10° E visible
31 Jul -1.7 02:42:53 33° NNW 02:43:20 35° N 02:46:29 10° ENE visible
31 Jul -2.1 04:17:16 10° WNW 04:20:32 44° NNE 04:23:47 10° E visible
01 Aug -1.2 01:55:54 25° NE 01:55:54 25° NE 01:57:38 10° ENE visible
01 Aug -1.8 03:28:47 12° WNW 03:31:38 38° N 03:34:49 10° E visible
01 Aug -3.4 05:05:12 10° WNW 05:08:34 77° SSW 05:11:55 10° ESE visible
02 Aug -1.6 02:42:09 32° NNW 02:42:43 34° N 02:45:51 10° ENE visible
02 Aug -3.1 04:16:24 10° WNW 04:19:46 74° NNE 04:23:08 10° ESE visible
02 Aug -2.3 22:37:18 10° SSW 22:40:10 27° SE 22:41:28 20° ESE visible
03 Aug -1.2 00:13:23 10° WSW 00:14:36 21° W 00:14:36 21° W visible
03 Aug -0.3 01:56:34 12° ENE 01:56:34 12° ENE 01:56:55 10° ENE visible
03 Aug -2.5 03:29:36 31° NW 03:30:56 54° NNE 03:34:15 10° E visible
03 Aug -2.6 05:04:30 10° WNW 05:07:35 34° SW 05:10:39 10° SSE visible
03 Aug -1.7 21:49:19 10° S 21:51:33 17° SE 21:53:48 10° E visible
03 Aug -3.4 23:24:33 10° WSW 23:27:53 88° NNW 23:30:23 17° ENE visible
04 Aug -1.1 01:01:45 10° WNW 01:03:21 23° WNW 01:03:21 23° WNW visible
04 Aug -2.8 04:19:36 43° SSE 04:19:36 43° SSE 04:22:10 10° SE visible
04 Aug -3.3 22:35:50 10° SW 22:39:07 61° SSE 22:42:27 10° ENE visible
